Date String (YYYY-MM-DD hh:mm:ss) UTC,Instrument flags,absolute air pressure of the measurement (hPa),sample flow rate (lpm),inlet stack bypass flow (lpm),air temperature of the measurement (°C),ambient temperature measured by the external sensor (°C),aerosol sample conditioner tube jacket temperature (°C),OPC LED temperature (°C),internal box temperature (°C),relative humidity of the measurement (%),span deviation,mass concentration of particles derived from Lorenz-Mie calculation of OPC scattering (μg/m³),mass concentration of particles derived from Lorenz-Mie calculation of OPC scattering (μg/m³),mass concentration of particles derived from Lorenz-Mie calculation of OPC scattering (μg/m³)
DateTimeUTC,F1_M11,P_M11,Q1_M11,Q2_M11,T1_M11,T2_M11,T3_M11,T4_M11,T5_M11,U1_M11,ZSPAN_M11,X0_M11,X2_M11,X1_M11
2023-08-17 22:00:00,SystemResetWarning,0832.5,5.00,000.00,027.6,024.8,000.0,035.9,029.0,32.9,0002.7,0024.97,0013.81,0012.28
2023-08-17 22:01:00,SystemResetWarning,0832.4,5.00,000.00,027.7,025.3,000.0,035.9,029.2,33.1,0002.7,0025.73,0013.84,0012.28
2023-08-17 22:02:00,SystemResetWarning,0832.4,5.00,000.00,027.7,025.7,000.0,035.9,029.4,33.3,0002.8,0025.44,0013.88,0012.28
2023-08-17 22:03:00,SystemResetWarning,0832.4,5.00,000.00,027.8,026.1,000.0,036.0,029.5,33.2,0002.8,0025.84,0013.87,0012.28
2023-08-17 22:04:00,SystemResetWarning,0832.4,4.99,000.00,027.8,026.5,000.0,036.0,029.6,33.2,0002.3,0025.85,0013.87,0012.30
2023-08-17 22:05:00,SystemResetWarning,0832.4,4.98,000.00,027.9,025.8,000.0,036.0,029.5,32.5,0002.3,0025.94,0013.92,0012.34
2023-08-17 22:06:00,SystemResetWarning,0832.3,5.00,000.00,027.8,024.5,000.0,035.9,029.3,32.3,0002.3,0026.58,0014.02,0012.35
2023-08-17 22:07:00,SystemResetWarning,0832.3,5.01,000.00,027.8,024.3,000.0,035.8,029.2,32.8,0002.0,0027.02,0014.11,0012.37
2023-08-17 22:08:00,SystemResetWarning,0832.3,5.01,000.00,027.7,024.6,000.0,035.9,029.1,33.5,0001.8,0026.88,0014.12,0012.39
2023-08-17 22:09:00,SystemResetWarning,0832.2,5.00,000.00,027.7,025.0,000.0,035.9,029.2,33.8,0001.7,0026.49,0014.10,0012.41
2023-08-17 22:10:00,SystemResetWarning,0832.2,5.00,000.00,027.7,025.5,000.0,035.9,029.3,32.7,0001.5,0025.71,0014.08,0012.43
2023-08-17 22:11:00,SystemResetWarning,0832.2,5.01,000.00,027.8,025.9,000.0,036.0,029.5,32.2,0001.5,0025.27,0014.19,0012.46
2023-08-17 22:12:00,SystemResetWarning,0832.2,4.99,000.00,027.8,026.0,000.0,036.0,029.5,32.3,0001.3,0024.15,0014.25,0012.48
2023-08-17 22:13:00,SystemResetWarning,0832.1,4.99,000.00,027.8,024.8,000.0,035.9,029.3,32.8,0001.3,0024.01,0014.27,0012.50
2023-08-17 22:14:00,SystemResetWarning,0832.2,5.01,000.00,027.7,024.0,000.0,035.8,029.1,33.4,0001.8,0023.60,0014.31,0012.53
2023-08-17 22:15:00,SystemResetWarning,0832.2,5.01,000.00,027.7,024.3,000.0,035.8,029.1,33.8,0002.0,0023.70,0014.40,0012.54
2023-08-17 22:16:00,SystemResetWarning,0832.2,5.00,000.00,027.6,024.7,000.0,035.9,029.1,33.4,0001.6,0022.54,0014.43,0012.56
2023-08-17 22:17:00,SystemResetWarning,0832.2,5.01,000.00,027.6,025.1,000.0,035.9,029.2,33.3,0001.3,0022.00,0014.41,0012.58
2023-08-17 22:18:00,SystemResetWarning,0832.2,5.00,000.00,027.7,025.6,000.0,035.9,029.4,33.8,0000.9,0021.51,0014.38,0012.61
2023-08-17 22:19:00,SystemResetWarning,0832.2,5.00,000.00,027.7,026.0,000.0,036.0,029.5,33.2,0001.4,0021.87,0014.45,0012.64
2023-08-17 22:20:00,SystemResetWarning,0832.2,5.01,000.00,027.8,026.3,000.0,036.0,029.6,32.6,0001.6,0022.27,0014.45,0012.64
2023-08-17 22:21:00,SystemResetWarning,0832.2,4.98,000.00,027.8,025.7,000.0,036.0,029.5,32.1,0002.2,0022.76,0014.46,0012.66
2023-08-17 22:22:00,SystemResetWarning,0832.2,5.01,000.00,027.8,024.4,000.0,035.9,029.3,32.9,0002.2,0023.52,0014.42,0012.66
2023-08-17 22:23:00,SystemResetWarning,0832.1,5.00,000.00,027.7,024.2,000.0,035.9,029.2,32.8,0002.8,0024.49,0014.44,0012.67
2023-08-17 22:24:00,SystemResetWarning,0832.1,5.02,000.00,027.7,024.5,000.0,035.9,029.1,33.8,0002.9,0025.16,0014.51,0012.69
2023-08-17 22:25:00,SystemResetWarning,0832.0,5.00,000.00,027.7,024.9,000.0,035.9,029.2,33.6,0002.4,0026.03,0014.50,0012.69
2023-08-17 22:26:00,SystemResetWarning,0832.1,5.00,000.00,027.7,025.4,000.0,035.9,029.3,33.9,0002.4,0026.14,0014.50,0012.70
2023-08-17 22:27:00,SystemResetWarning,0832.1,5.00,000.00,027.7,025.8,000.0,036.0,029.5,33.5,0002.3,0026.54,0014.51,0012.70
2023-08-17 22:28:00,SystemResetWarning,0832.1,4.99,000.00,027.8,025.9,000.0,036.0,029.5,33.6,0002.6,0026.61,0014.52,0012.70
2023-08-17 22:29:00,SystemResetWarning,0832.0,4.99,000.00,027.8,024.7,000.0,035.9,029.3,33.6,0002.6,0026.53,0014.51,0012.70
2023-08-17 22:30:00,SystemResetWarning,0832.1,5.02,000.00,027.7,024.0,000.0,035.8,029.1,33.9,0002.2,0026.40,0014.50,0012.69
2023-08-17 22:31:00,SystemResetWarning,0832.0,5.01,000.00,027.6,024.2,000.0,035.8,029.1,32.7,0002.1,0026.32,0014.52,0012.68
2023-08-17 22:32:00,SystemResetWarning,0832.0,5.00,000.00,027.6,024.6,000.0,035.8,029.0,33.1,0002.1,0026.07,0014.56,0012.68
2023-08-17 22:33:00,SystemResetWarning,0832.0,5.00,000.00,027.6,025.1,000.0,035.9,029.1,32.9,0002.2,0026.99,0014.60,0012.67
2023-08-17 22:34:00,SystemResetWarning,0832.0,5.00,000.00,027.6,025.5,000.0,035.9,029.3,33.3,0002.2,0026.30,0014.61,0012.67
2023-08-17 22:35:00,SystemResetWarning,0832.0,5.00,000.00,027.7,025.9,000.0,035.9,029.5,33.6,0002.2,0026.21,0014.56,0012.69
2023-08-17 22:36:00,SystemResetWarning,0832.0,5.00,000.00,027.8,026.3,000.0,036.0,029.6,32.6,0002.0,0026.42,0014.59,0012.69
2023-08-17 22:37:00,SystemResetWarning,0832.0,4.99,000.00,027.8,026.3,000.0,036.0,029.6,32.3,0002.0,0026.01,0014.55,0012.66
2023-08-17 22:38:00,SystemResetWarning,0831.9,4.99,000.00,027.8,025.1,000.0,035.9,029.3,32.0,0002.0,0026.36,0014.54,0012.65
2023-08-17 22:39:00,SystemResetWarning,0831.8,5.01,000.00,027.7,024.2,000.0,035.9,029.2,32.2,0002.3,0026.99,0014.56,0012.63
2023-08-17 22:40:00,SystemResetWarning,0831.8,5.01,000.00,027.7,024.3,000.0,035.8,029.1,32.7,0002.5,0029.13,0014.57,0012.64
2023-08-17 22:41:00,SystemResetWarning,0831.9,5.01,000.00,027.6,024.7,000.0,035.9,029.0,32.5,0002.9,0029.61,0014.55,0012.64
2023-08-17 22:42:00,SystemResetWarning,0832.0,5.01,000.00,027.6,025.1,000.0,035.9,029.2,32.8,0002.7,0029.48,0014.54,0012.64
2023-08-17 22:43:00,SystemResetWarning,0831.9,4.99,000.00,027.7,025.6,000.0,035.9,029.4,33.1,0002.7,0030.36,0014.51,0012.66
2023-08-17 22:44:00,SystemResetWarning,0832.0,5.00,000.00,027.7,026.0,000.0,036.0,029.5,32.6,0002.5,0028.78,0014.48,0012.67
2023-08-17 22:45:00,SystemResetWarning,0832.1,4.99,000.00,027.8,025.4,000.0,035.9,029.4,32.6,0002.4,0028.30,0014.42,0012.66
2023-08-17 22:46:00,SystemResetWarning,0831.8,5.00,000.00,027.7,024.2,000.0,035.8,029.2,32.9,0002.2,0027.80,0014.41,0012.65
2023-08-17 22:47:00,SystemResetWarning,0831.7,5.01,000.00,027.6,024.0,000.0,035.8,029.1,33.0,0002.0,0027.73,0014.38,0012.65
2023-08-17 22:48:00,SystemResetWarning,0831.7,5.00,000.00,027.6,024.3,000.0,035.8,029.0,33.0,0001.8,0027.94,0014.40,0012.66
2023-08-17 22:49:00,SystemResetWarning,0831.7,5.00,000.00,027.6,024.7,000.0,035.9,029.0,32.8,0001.9,0028.83,0014.41,0012.66
2023-08-17 22:50:00,SystemResetWarning,0831.8,4.99,000.00,027.6,025.2,000.0,035.9,029.2,32.6,0001.6,0029.11,0014.36,0012.66
2023-08-17 22:51:00,SystemResetWarning,0831.8,5.00,000.00,027.6,025.6,000.0,035.9,029.4,32.5,0001.3,0027.12,0014.33,0012.66
2023-08-17 22:52:00,SystemResetWarning,0831.7,5.00,000.00,027.7,026.0,000.0,035.9,029.5,32.4,0000.9,0026.94,0014.35,0012.67
2023-08-17 22:53:00,SystemResetWarning,0831.7,4.99,000.00,027.7,025.5,000.0,035.9,029.3,32.0,0001.2,0027.12,0014.35,0012.68
2023-08-17 22:54:00,SystemResetWarning,0831.7,5.00,000.00,027.6,024.2,000.0,035.8,029.1,32.7,0001.1,0026.98,0014.39,0012.66
2023-08-17 22:55:00,SystemResetWarning,0831.7,5.01,000.00,027.6,024.0,000.0,035.8,029.0,33.0,0001.2,0027.19,0014.42,0012.65
2023-08-17 22:56:00,SystemResetWarning,0831.7,4.99,000.00,027.5,024.3,000.0,035.8,029.0,33.1,0001.2,0029.08,0014.44,0012.67
2023-08-17 22:57:00,SystemResetWarning,0831.6,5.00,000.00,027.5,024.7,000.0,035.8,029.0,33.2,0001.0,0029.81,0014.43,0012.68
2023-08-17 22:58:00,SystemResetWarning,0831.6,5.01,000.00,027.5,025.2,000.0,035.8,029.2,33.7,0001.3,0029.56,0014.49,0012.71
2023-08-17 22:59:00,SystemResetWarning,0831.7,5.00,000.00,027.6,025.6,000.0,035.9,029.3,33.9,0001.3,0030.83,0014.54,0012.78
